Tracking 18816 objects as of 16-October-2017
HD Live streaming from Space Station
objects crossing your sky now

OPS 0757 (TACSAT)

Track OPS 0757 (TACSAT) now!
OPS 0757 (TACSAT) is classified as:


NORAD ID: 3691
Int'l Code: 1969-013A
Perigee: 35,654.0 km
Apogee: 35,833.3 km
Inclination: 4.8 °
Period: 1,433.5 minutes
Semi major axis: 42114 km
RCS: 1 m2 (large)
Launch date: February 9, 1969
Source: United States (US)
Launch site: AIR FORCE EASTERN TEST RANGE (AFETR)
aabbcc
Your satellite tracking list
Your tracking list is empty





NASA's NSSDC Master Catalog

Two Line Element Set (TLE):
1  3691U 69013A   17288.88026738 -.00000085 +00000-0 +00000-0 0  9990
2  3691 004.7677 300.9267 0021281 260.3687 207.0741 01.00450809082317
Source of the keplerian elements: AFSPC